CP3068 SLET-SLET

Flight info

Callsign CP3068
Flight time 0h 25m
Altitude 3000
Route SLET
Aircraft C206/M-V/N

Departure

Time 2026-04-28 02:31
Airport El Trompillo Airport (SLET)

Arrival

Time 2026-04-28 02:56
Airport El Trompillo Airport (SLET)
Time Latitude Longitude Altitude Speed Heading
2026-04-28 02:30 -17.80619 -63.17545 1431 ft 98 kts 143°
2026-04-28 02:31 -17.81208 -63.17122 1769 ft 106 kts 146°
2026-04-28 02:31 -17.81868 -63.16655 2058 ft 119 kts 146°
2026-04-28 02:31 -17.82563 -63.16168 2391 ft 122 kts 145°
2026-04-28 02:31 -17.83354 -63.15813 2661 ft 129 kts 175°
2026-04-28 02:32 -17.84148 -63.16145 2851 ft 129 kts 227°
2026-04-28 02:32 -17.84743 -63.16871 2982 ft 131 kts 229°
2026-04-28 02:32 -17.85285 -63.17643 3120 ft 133 kts 246°
2026-04-28 02:32 -17.85229 -63.18595 3164 ft 139 kts 301°
2026-04-28 02:33 -17.84564 -63.19291 3315 ft 134 kts 318°
2026-04-28 02:33 -17.83851 -63.19923 3450 ft 134 kts 321°
2026-04-28 02:33 -17.83745 -63.20012 3464 ft 135 kts 321°
2026-04-28 02:33 -17.83099 -63.20541 3517 ft 138 kts 322°
2026-04-28 02:34 -17.82315 -63.21169 3529 ft 142 kts 323°
2026-04-28 02:34 -17.81533 -63.21769 3633 ft 139 kts 324°
2026-04-28 02:34 -17.80652 -63.22139 3644 ft 132 kts 355°
2026-04-28 02:34 -17.79836 -63.21939 3383 ft 119 kts 28°
2026-04-28 02:35 -17.79171 -63.21446 3086 ft 110 kts 39°
2026-04-28 02:35 -17.78609 -63.20943 2873 ft 100 kts 44°
2026-04-28 02:35 -17.78183 -63.20429 2705 ft 91 kts 53°
2026-04-28 02:35 -17.78031 -63.19825 2492 ft 89 kts 101°
2026-04-28 02:36 -17.78358 -63.19259 2208 ft 94 kts 140°
2026-04-28 02:36 -17.78891 -63.18867 1960 ft 94 kts 144°
2026-04-28 02:36 -17.79410 -63.18474 1740 ft 92 kts 144°
2026-04-28 02:36 -17.79924 -63.18077 1516 ft 90 kts 143°
2026-04-28 02:37 -17.80407 -63.17710 1378 ft 81 kts 144°
2026-04-28 02:37 -17.80810 -63.17409 1374 ft 64 kts 144°
2026-04-28 02:37 -17.81331 -63.17013 1431 ft 113 kts 144°
2026-04-28 02:37 -17.82001 -63.16515 1762 ft 120 kts 145°
2026-04-28 02:38 -17.82698 -63.16018 2120 ft 122 kts 146°
2026-04-28 02:38 -17.83418 -63.15531 2468 ft 121 kts 147°
2026-04-28 02:38 -17.84162 -63.15132 2767 ft 119 kts 165°
2026-04-28 02:38 -17.84972 -63.15265 2946 ft 125 kts 213°
2026-04-28 02:39 -17.85588 -63.15952 3020 ft 136 kts 233°
2026-04-28 02:39 -17.86068 -63.16810 3185 ft 133 kts 256°
2026-04-28 02:39 -17.85861 -63.17732 3258 ft 140 kts 309°
2026-04-28 02:39 -17.85329 -63.18130 3252 ft 144 kts 330°
2026-04-28 02:40 -17.84153 -63.18780 3353 ft 143 kts 333°
2026-04-28 02:40 -17.83275 -63.19297 3386 ft 145 kts 327°
2026-04-28 02:40 -17.82704 -63.19666 3443 ft 144 kts 327°
2026-04-28 02:40 -17.81858 -63.20246 3455 ft 147 kts 327°
2026-04-28 02:41 -17.81026 -63.20787 3488 ft 133 kts 328°
2026-04-28 02:41 -17.80264 -63.21267 3399 ft 122 kts 330°
2026-04-28 02:41 -17.79517 -63.21578 3345 ft 112 kts 353°
2026-04-28 02:41 -17.78803 -63.21461 3157 ft 101 kts 23°
2026-04-28 02:42 -17.78292 -63.20987 2838 ft 104 kts 53°
2026-04-28 02:42 -17.77896 -63.20407 2702 ft 90 kts 56°
2026-04-28 02:42 -17.77772 -63.19846 2660 ft 83 kts 104°
2026-04-28 02:42 -17.78185 -63.19368 2409 ft 96 kts 149°
2026-04-28 02:43 -17.78749 -63.18974 2112 ft 99 kts 145°
2026-04-28 02:43 -17.79306 -63.18559 1862 ft 96 kts 143°
2026-04-28 02:43 -17.79850 -63.18144 1602 ft 96 kts 143°
2026-04-28 02:43 -17.80369 -63.17742 1430 ft 88 kts 144°
2026-04-28 02:44 -17.80821 -63.17400 1374 ft 70 kts 144°
2026-04-28 02:44 -17.81279 -63.17053 1427 ft 101 kts 144°
2026-04-28 02:44 -17.81913 -63.16600 1706 ft 118 kts 147°
2026-04-28 02:44 -17.82608 -63.16126 2044 ft 122 kts 147°
2026-04-28 02:45 -17.83313 -63.15641 2435 ft 120 kts 148°
2026-04-28 02:45 -17.84120 -63.15656 2685 ft 128 kts 214°
2026-04-28 02:45 -17.84778 -63.16320 2883 ft 131 kts 226°
2026-04-28 02:45 -17.85369 -63.17060 3093 ft 132 kts 241°
2026-04-28 02:46 -17.85335 -63.17965 3276 ft 135 kts 304°
2026-04-28 02:46 -17.84576 -63.18593 3344 ft 142 kts 325°
2026-04-28 02:46 -17.83752 -63.19182 3440 ft 143 kts 327°
2026-04-28 02:46 -17.82913 -63.19719 3573 ft 142 kts 330°
2026-04-28 02:47 -17.82041 -63.20249 3628 ft 145 kts 330°
2026-04-28 02:47 -17.81152 -63.20762 3710 ft 145 kts 331°
2026-04-28 02:47 -17.80287 -63.21260 3764 ft 135 kts 332°
2026-04-28 02:47 -17.79438 -63.21594 3675 ft 126 kts 355°
2026-04-28 02:48 -17.78666 -63.21257 3513 ft 126 kts 50°
2026-04-28 02:48 -17.78113 -63.20552 3418 ft 123 kts 52°
2026-04-28 02:48 -17.77865 -63.19786 3152 ft 116 kts 103°
2026-04-28 02:48 -17.78494 -63.19162 2376 ft 160 kts 150°
2026-04-28 02:49 -17.79489 -63.18400 1674 ft 188 kts 143°
2026-04-28 02:49 -17.80551 -63.17601 1385 ft 180 kts 144°
2026-04-28 02:49 -17.81539 -63.16863 1382 ft 169 kts 144°
2026-04-28 02:49 -17.82471 -63.16168 1500 ft 156 kts 144°
2026-04-28 02:50 -17.83272 -63.15591 1960 ft 128 kts 147°
2026-04-28 02:50 -17.84002 -63.15139 2247 ft 117 kts 153°
2026-04-28 02:50 -17.84784 -63.15111 2307 ft 127 kts 210°
2026-04-28 02:50 -17.85409 -63.15787 2408 ft 127 kts 229°
2026-04-28 02:51 -17.85968 -63.16502 2523 ft 128 kts 232°
2026-04-28 02:51 -17.86171 -63.17364 2621 ft 130 kts 288°
2026-04-28 02:51 -17.85564 -63.18079 2649 ft 134 kts 319°
2026-04-28 02:51 -17.84857 -63.18703 2727 ft 134 kts 321°
2026-04-28 02:52 -17.84099 -63.19296 2755 ft 136 kts 324°
2026-04-28 02:52 -17.83313 -63.19860 2774 ft 138 kts 326°
2026-04-28 02:52 -17.82514 -63.20406 2771 ft 140 kts 328°
2026-04-28 02:52 -17.81665 -63.20911 2782 ft 139 kts 332°
2026-04-28 02:53 -17.80809 -63.21371 2802 ft 139 kts 333°
2026-04-28 02:53 -17.79946 -63.21837 2804 ft 139 kts 333°
2026-04-28 02:53 -17.79029 -63.22133 2812 ft 139 kts
2026-04-28 02:53 -17.78219 -63.21625 2717 ft 144 kts 50°
2026-04-28 02:54 -17.77641 -63.20913 2693 ft 115 kts 50°
2026-04-28 02:54 -17.77260 -63.20278 2636 ft 91 kts 82°
2026-04-28 02:54 -17.77565 -63.19768 2412 ft 90 kts 149°
2026-04-28 02:54 -17.78117 -63.19414 2133 ft 94 kts 146°
2026-04-28 02:55 -17.78647 -63.19034 1935 ft 89 kts 144°
2026-04-28 02:55 -17.79132 -63.18675 1772 ft 83 kts 144°
2026-04-28 02:55 -17.79588 -63.18333 1614 ft 79 kts 143°
2026-04-28 02:55 -17.80033 -63.17991 1444 ft 78 kts 143°
2026-04-28 02:56 -17.80436 -63.17681 1374 ft 64 kts 143°
2026-04-28 02:56 -17.80744 -63.17447 1374 ft 46 kts 144°
2026-04-28 02:56 -17.80894 -63.17336 1374 ft 14 kts 144°
2026-04-28 02:56 -17.80935 -63.17284 1374 ft 6 kts 88°
2026-04-28 02:57 -17.80913 -63.17263 1374 ft 8 kts 356°
2026-04-28 02:57 -17.80841 -63.17301 1374 ft 15 kts 328°
2026-04-28 02:57 -17.80734 -63.17364 1374 ft 19 kts 334°
2026-04-28 02:57 -17.80620 -63.17433 1374 ft 19 kts 325°
2026-04-28 02:58 -17.80512 -63.17519 1374 ft 19 kts 323°
2026-04-28 02:58 -17.80401 -63.17601 1374 ft 20 kts 326°
2026-04-28 02:58 -17.80302 -63.17662 1374 ft 11 kts 353°
2026-04-28 02:58 -17.80259 -63.17659 1374 ft 4 kts
2026-04-28 02:59 -17.80176 -63.17667 1374 ft 16 kts 346°
2026-04-28 02:59 -17.80141 -63.17645 1374 ft 4 kts 122°
2026-04-28 02:59 -17.80147 -63.17641 1374 ft 0 kts 166°